EW7943 Weather Reports


time (UTC)temp
C
wind
direction
speed
KPH
gust
KPH
rain 1hr
cm
rain 24hr
cm
rain mn
cm
humidity
%
barometer
mb
20260510044551 20 127 0.0 0.0 0.00 0.00 0.00 58 1019.0
20260510043010 19 123 0.0 0.0 0.00 0.00 0.00 60 1019.1
20260510041530 19 124 0.0 0.0 0.00 0.00 0.00 60 1019.1
20260510040008 19 119 0.0 0.0 0.00 0.00 0.00 59 1019.3
20260510034516 20 112 0.0 0.0 0.00 0.00 0.00 59 1019.4
20260510033032 19 115 0.0 0.0 0.00 0.00 0.00 60 1019.4
20260510031554 18 106 0.0 0.0 0.00 0.00 0.00 63 1019.4
20260510030016 19 114 0.0 0.0 0.00 0.00 0.00 62 1019.6
20260510024528 18 103 0.0 0.0 0.00 0.00 0.00 64 1019.9
20260510023054 18 96 0.0 0.0 0.00 0.00 0.00 64 1020.1
20260510021503 18 64 0.0 0.0 0.00 0.00 0.00 66 1020.3
20260510020028 17 123 0.0 0.0 0.00 0.00 0.00 67 1020.5
20260510014551 17 123 0.0 0.0 0.00 0.00 0.00 67 1020.7
20260510013007 17 95 0.0 0.0 0.00 0.00 0.00 69 1020.8
20260510011528 17 100 0.0 0.0 0.00 0.00 0.00 70 1020.9
20260510010033 16 125 0.0 0.0 0.00 0.00 0.00 75 1020.9
20260510004554 15 119 0.0 0.0 0.00 0.00 0.00 76 1020.9
20260510003020 15 131 0.0 0.0 0.00 0.00 0.00 76 1020.9
20260510001525 15 96 0.0 0.0 0.00 0.00 0.00 81 1020.9
20260510000040 15 134 0.0 0.0 0.00 0.00 0.00 81 1020.9
20260509234628 14 110 0.0 0.0 0.00 0.00 0.00 84 1021.0
20260509233005 13 121 0.0 0.0 0.00 0.00 0.00 85 1020.9
20260509231515 13 117 0.0 0.0 0.00 0.00 0.00 87 1020.8
20260509230025 12 122 0.0 0.0 0.00 0.00 0.00 89 1020.8
20260509224545 12 113 0.0 0.0 0.00 0.00 0.00 90 1020.8
20260509223053 11 112 0.0 0.0 0.00 0.00 0.00 91 1020.6
20260509221514 11 106 0.0 0.0 0.00 0.00 0.00 91 1020.5
20260509220034 11 101 0.0 0.0 0.00 0.00 0.00 92 1020.4
20260509214547 10 99 0.0 0.0 0.00 0.00 0.00 92 1020.1
20260509213007 10 165 0.0 0.0 0.00 0.00 0.00 92 1020.0
20260509211540 10 175 0.0 0.0 0.00 0.00 0.00 92 1019.8
20260509210051 10 188 0.0 0.0 0.00 0.00 0.00 92 1019.7
20260509210001 10 188 0.0 0.0 0.00 0.00 0.00 92 1019.7
20260509204517 10 77 0.0 0.0 0.00 0.00 0.00 92 1019.7
20260509203111 10 136 0.0 0.0 0.00 0.00 0.00 92 1019.5
20260509201505 10 136 0.0 0.0 0.00 0.00 0.00 92 1019.4
20260509200027 10 136 0.0 0.0 0.00 0.00 0.00 91 1019.2
20260509194545 10 136 0.0 0.0 0.00 0.00 0.00 91 1019.1
20260509193007 10 136 0.0 0.0 0.00 0.00 0.00 91 1018.9
20260509191518 10 136 0.0 0.0 0.00 0.00 0.00 91 1018.8
20260509190039 10 136 0.0 0.0 0.00 0.00 0.00 92 1018.6
20260509184552 10 136 0.0 0.0 0.00 0.00 0.00 92 1018.4
20260509183023 10 143 0.0 0.0 0.00 0.00 0.00 92 1018.3
20260509181545 10 144 0.0 0.0 0.00 0.00 0.00 91 1018.2
20260509180006 10 144 0.0 0.0 0.00 0.00 0.00 91 1018.1
20260509174531 10 144 0.0 0.0 0.00 0.00 0.00 91 1018.0
20260509173102 10 144 0.0 0.0 0.00 0.00 0.00 91 1018.1
20260509171524 10 144 0.0 0.0 0.00 0.00 0.00 91 1018.2
20260509170037 10 144 0.0 0.0 0.00 0.00 0.00 91 1018.3
20260509164508 -17 0.0 0.0 0.00 0.00 0.00 1018.3
20260509163046 -17 0.0 0.0 0.00 0.00 0.00 1018.3
20260509161535 -17 0.0 0.0 0.00 0.00 0.00 1018.3
20260509160101 -17 0.0 0.0 0.00 0.00 0.00 1018.4
20260509154526 -17 0.0 0.0 0.00 0.00 0.00 1018.3
20260509153013 -17 0.0 0.0 0.00 0.00 0.00 1018.3
20260509151555 -17 0.0 0.0 0.00 0.00 0.00 1018.3
20260509150026 -17 0.0 0.0 0.00 0.00 0.00 1018.3
20260509144650 -17 0.0 0.0 0.00 0.00 0.00 1018.3
20260509143022 -17 0.0 0.0 0.00 0.00 0.00 1018.3
20260509141603 -17 0.0 0.0 0.00 0.00 0.00 1018.2
20260509141506 -17 0.0 0.0 0.00 0.00 0.00 1018.2
20260509140034 10 144 0.0 0.0 0.00 0.00 0.00 86 1018.2
20260509134545 10 144 0.0 0.0 0.00 0.00 0.00 86 1018.0
20260509133016 11 144 0.0 0.0 0.00 0.00 0.00 85 1018.0
20260509131532 11 144 0.0 0.0 0.00 0.00 0.00 85 1018.2
20260509124524 11 144 0.0 0.0 0.00 0.00 0.00 85 1018.3
20260509123052 12 144 0.0 0.0 0.00 0.00 0.00 85 1018.3
20260509121517 12 144 0.0 0.0 0.00 0.00 0.00 85 1018.3
20260509120034 12 144 0.0 0.0 0.00 0.00 0.00 85 1018.3
20260509114557 12 144 0.0 0.0 0.00 0.00 0.00 84 1018.3
20260509113017 12 144 0.0 0.0 0.00 0.00 0.00 84 1018.4
20260509111539 12 144 0.0 0.0 0.00 0.00 0.00 83 1018.4
20260509110054 12 144 0.0 0.0 0.00 0.00 0.00 83 1018.3
20260509104523 12 144 0.0 0.0 0.00 0.00 0.00 83 1018.2
20260509103050 13 145 0.0 0.0 0.00 0.00 0.00 82 1018.2
20260509101520 13 144 0.0 0.0 0.00 0.00 0.00 82 1018.4
20260509100045 13 144 0.0 0.0 0.00 0.00 0.00 81 1018.4
20260509094515 13 147 0.0 0.0 0.00 0.00 0.00 80 1018.3
20260509093039 13 148 0.0 0.0 0.00 0.00 0.00 79 1018.3
20260509091606 14 148 0.0 0.0 0.00 0.00 0.00 78 1018.2
20260509090027 14 148 0.0 0.0 0.00 0.00 0.00 77 1018.1
20260509084548 15 145 0.0 0.0 0.00 0.00 0.00 76 1017.9
20260509083022 15 146 0.0 0.0 0.00 0.00 0.00 75 1017.7
20260509081535 15 146 0.0 0.0 0.00 0.00 0.00 74 1017.5
20260509080058 15 146 0.0 0.0 0.00 0.00 0.00 72 1017.4
20260509074521 16 146 0.0 0.0 0.00 0.00 0.00 70 1017.1
20260509073042 16 146 0.0 0.0 0.00 0.00 0.00 69 1017.0
20260509071502 17 146 0.0 0.0 0.00 0.00 0.00 68 1016.8
20260509070030 17 145 0.0 0.0 0.00 0.00 0.00 67 1016.8
20260509064556 17 148 0.0 0.0 0.00 0.00 0.00 65 1016.6
20260509064504 17 148 0.0 0.0 0.00 0.00 0.00 65 1016.6
20260509063024 17 148 0.0 0.0 0.00 0.00 0.00 65 1016.6
20260509061605 17 141 0.0 0.0 0.00 0.00 0.00 64 1016.5
20260509060012 18 140 0.0 0.0 0.00 0.00 0.00 62 1016.5
20260509054547 18 206 0.0 0.0 0.00 0.00 0.00 62 1016.4
20260509053008 18 193 0.0 0.0 0.00 0.00 0.00 62 1016.5
20260509051533 18 187 0.0 0.0 0.00 0.00 0.00 61 1016.5
20260509050100 18 175 0.0 0.0 0.00 0.00 0.00 62 1016.7